Time,TemperatureF,DewpointF,PressureIn,WindDirection,WindDirectionDegrees,WindSpeedMPH,WindSpeedGustMPH,Humidity,HourlyPrecipIn,Conditions,Clouds,dailyrainin,SoftwareType,DateUTC
2013-02-27 00:00:00,27.8,26.8,29.66,ENE,60,6.0,6.0,96,0.00,,,0.00,Wunderground v.1.15,2013-02-27 06:00:00,
2013-02-27 00:05:00,27.8,26.8,29.66,NE,46,6.0,6.0,96,0.00,,,0.00,Wunderground v.1.15,2013-02-27 06:05:00,
2013-02-27 00:10:00,27.8,26.8,29.67,NE,42,5.0,6.0,96,0.00,,,0.00,Wunderground v.1.15,2013-02-27 06:10:00,
2013-02-27 00:15:00,27.8,26.8,29.66,NE,44,5.0,9.0,96,0.00,,,0.00,Wunderground v.1.15,2013-02-27 06:15:00,
2013-02-27 00:20:00,27.8,26.8,29.67,NNE,33,6.0,8.0,96,0.00,,,0.00,Wunderground v.1.15,2013-02-27 06:20:00,
2013-02-27 00:25:00,27.8,26.8,29.67,NNE,26,6.0,8.0,96,0.00,,,0.00,Wunderground v.1.15,2013-02-27 06:25:00,
2013-02-27 00:30:00,27.8,26.8,29.67,NE,34,6.0,6.0,96,0.00,,,0.00,Wunderground v.1.15,2013-02-27 06:30:00,
2013-02-27 00:40:00,27.8,26.8,29.67,NE,39,5.0,5.0,96,0.00,,,0.00,Wunderground v.1.15,2013-02-27 06:40:00,
2013-02-27 00:45:00,27.8,26.8,29.67,North,349,5.0,7.0,96,0.00,,,0.00,Wunderground v.1.15,2013-02-27 06:45:00,
2013-02-27 00:50:00,27.8,26.8,29.67,NE,40,4.0,5.0,96,0.00,,,0.00,Wunderground v.1.15,2013-02-27 06:50:00,
2013-02-27 00:55:00,27.9,26.9,29.67,NNE,28,5.0,6.0,96,0.00,,,0.00,Wunderground v.1.15,2013-02-27 06:55:00,
2013-02-27 01:00:00,27.9,26.9,29.67,NE,52,6.0,6.0,96,0.00,,,0.00,Wunderground v.1.15,2013-02-27 07:00:00,
2013-02-27 01:04:00,27.8,26.8,29.67,North,355,6.0,6.0,96,0.00,,,0.00,Wunderground v.1.15,2013-02-27 07:04:00,
2013-02-27 01:10:00,27.8,26.8,29.67,NE,36,7.0,7.0,96,0.00,,,0.00,Wunderground v.1.15,2013-02-27 07:10:00,
2013-02-27 01:20:00,27.8,26.8,29.67,NNE,28,5.0,5.0,96,0.00,,,0.00,Wunderground v.1.15,2013-02-27 07:20:00,
2013-02-27 01:25:00,27.8,26.8,29.67,NNE,25,5.0,5.0,96,0.00,,,0.00,Wunderground v.1.15,2013-02-27 07:25:00,
2013-02-27 01:30:00,27.8,26.8,29.67,NNE,13,5.0,5.0,96,0.00,,,0.00,Wunderground v.1.15,2013-02-27 07:30:00,
2013-02-27 01:35:00,27.8,26.8,29.67,NNW,348,4.0,10.0,96,0.00,,,0.00,Wunderground v.1.15,2013-02-27 07:35:00,
2013-02-27 01:40:00,27.8,26.8,29.67,NNE,26,4.0,8.0,96,0.00,,,0.00,Wunderground v.1.15,2013-02-27 07:40:00,
2013-02-27 01:45:00,27.8,26.8,29.67,NNE,21,5.0,8.0,96,0.00,,,0.00,Wunderground v.1.15,2013-02-27 07:45:00,
2013-02-27 01:50:00,27.7,26.7,29.67,NE,42,5.0,7.0,96,0.00,,,0.00,Wunderground v.1.15,2013-02-27 07:50:00,
2013-02-27 01:55:00,27.7,26.7,29.67,NNE,31,6.0,7.0,96,0.00,,,0.00,Wunderground v.1.15,2013-02-27 07:55:00,
2013-02-27 02:00:00,27.7,26.7,29.67,NNE,32,5.0,5.0,96,0.00,,,0.00,Wunderground v.1.15,2013-02-27 08:00:00,
2013-02-27 03:30:00,27.5,26.5,29.65,NE,50,5.0,6.0,96,0.00,,,0.00,Wunderground v.1.15,2013-02-27 09:30:00,
2013-02-27 03:35:00,27.5,26.5,29.65,NE,35,5.0,6.0,96,0.00,,,0.00,Wunderground v.1.15,2013-02-27 09:35:00,
2013-02-27 03:40:00,27.5,26.5,29.66,North,355,4.0,12.0,96,0.00,,,0.00,Wunderground v.1.15,2013-02-27 09:40:00,
2013-02-27 03:45:00,27.5,26.5,29.65,North,9,6.0,12.0,96,0.00,,,0.00,Wunderground v.1.15,2013-02-27 09:45:00,
2013-02-27 03:55:00,27.5,26.3,29.65,NE,35,6.0,6.0,95,0.00,,,0.00,Wunderground v.1.15,2013-02-27 09:55:00,
2013-02-27 04:00:00,27.5,26.3,29.65,NE,42,6.0,6.0,95,0.00,,,0.00,Wunderground v.1.15,2013-02-27 10:00:00,
2013-02-27 04:05:00,27.5,26.3,29.65,North,5,6.0,8.0,95,0.00,,,0.00,Wunderground v.1.15,2013-02-27 10:05:00,
2013-02-27 04:10:00,27.5,26.3,29.65,NNE,19,7.0,7.0,95,0.00,,,0.00,Wunderground v.1.15,2013-02-27 10:10:00,
2013-02-27 04:15:00,27.5,26.3,29.65,NNW,340,6.0,11.0,95,0.00,,,0.00,Wunderground v.1.15,2013-02-27 10:15:00,
2013-02-27 04:20:00,27.5,26.3,29.65,NNE,26,7.0,7.0,95,0.00,,,0.00,Wunderground v.1.15,2013-02-27 10:20:00,
2013-02-27 04:25:00,27.5,26.3,29.65,North,355,6.0,7.0,95,0.00,,,0.00,Wunderground v.1.15,2013-02-27 10:25:00,
2013-02-27 04:30:00,27.5,26.3,29.65,NE,45,6.0,6.0,95,0.00,,,0.00,Wunderground v.1.15,2013-02-27 10:30:00,
2013-02-27 04:35:00,27.5,26.3,29.65,North,355,6.0,15.0,95,0.00,,,0.00,Wunderground v.1.15,2013-02-27 10:35:00,
2013-02-27 04:40:00,27.5,26.3,29.65,NNE,19,7.0,7.0,95,0.00,,,0.00,Wunderground v.1.15,2013-02-27 10:40:00,
2013-02-27 04:45:00,27.4,26.2,29.65,North,11,7.0,7.0,95,0.00,,,0.00,Wunderground v.1.15,2013-02-27 10:45:00,
2013-02-27 04:50:00,27.4,26.2,29.65,NNW,347,6.0,11.0,95,0.00,,,0.00,Wunderground v.1.15,2013-02-27 10:50:00,
2013-02-27 04:55:00,27.4,26.2,29.65,NNE,28,5.0,11.0,95,0.00,,,0.00,Wunderground v.1.15,2013-02-27 10:55:00,
2013-02-27 05:00:00,27.4,26.2,29.65,North,355,5.0,11.0,95,0.00,,,0.00,Wunderground v.1.15,2013-02-27 11:00:00,
2013-02-27 05:05:00,27.4,26.2,29.66,NNE,28,6.0,11.0,95,0.00,,,0.00,Wunderground v.1.15,2013-02-27 11:05:00,
2013-02-27 05:10:00,27.4,26.2,29.66,NE,37,6.0,6.0,95,0.00,,,0.00,Wunderground v.1.15,2013-02-27 11:10:00,
2013-02-27 05:15:00,27.4,26.2,29.65,NNW,342,5.0,11.0,95,0.00,,,0.00,Wunderground v.1.15,2013-02-27 11:15:00,
2013-02-27 05:20:00,27.3,26.1,29.65,NNE,21,6.0,10.0,95,0.00,,,0.00,Wunderground v.1.15,2013-02-27 11:20:00,
2013-02-27 05:25:00,27.3,26.1,29.65,NE,44,7.0,10.0,95,0.00,,,0.00,Wunderground v.1.15,2013-02-27 11:25:00,
2013-02-27 05:35:00,27.3,26.1,29.65,NNE,14,6.0,6.0,95,0.00,,,0.00,Wunderground v.1.15,2013-02-27 11:35:00,
2013-02-27 05:40:00,27.3,26.1,29.65,NE,34,6.0,10.0,95,0.00,,,0.00,Wunderground v.1.15,2013-02-27 11:40:00,
2013-02-27 05:45:00,27.3,26.1,29.65,North,11,6.0,10.0,95,0.00,,,0.00,Wunderground v.1.15,2013-02-27 11:45:00,
2013-02-27 05:50:00,27.3,26.1,29.65,North,355,5.0,9.0,95,0.00,,,0.00,Wunderground v.1.15,2013-02-27 11:50:00,
2013-02-27 05:55:00,27.3,26.1,29.66,NNE,18,6.0,9.0,95,0.00,,,0.00,Wunderground v.1.15,2013-02-27 11:55:00,
2013-02-27 06:00:00,27.3,26.1,29.66,North,360,8.0,8.0,95,0.00,,,0.00,Wunderground v.1.15,2013-02-27 12:00:00,
2013-02-27 06:05:00,27.3,26.1,29.66,NNW,346,7.0,10.0,95,0.00,,,0.00,Wunderground v.1.15,2013-02-27 12:05:00,
2013-02-27 06:09:00,27.3,26.1,29.66,North,360,6.0,6.0,95,0.00,,,0.00,Wunderground v.1.15,2013-02-27 12:09:00,
2013-02-27 06:15:00,27.3,26.1,29.66,NNE,23,6.0,6.0,95,0.00,,,0.00,Wunderground v.1.15,2013-02-27 12:15:00,
2013-02-27 06:20:00,27.4,26.2,29.66,NE,34,5.0,5.0,95,0.00,,,0.00,Wunderground v.1.15,2013-02-27 12:20:00,
2013-02-27 06:25:00,27.4,26.2,29.66,NNE,15,5.0,6.0,95,0.00,,,0.00,Wunderground v.1.15,2013-02-27 12:25:00,
2013-02-27 06:30:00,27.4,26.2,29.66,NNE,15,5.0,10.0,95,0.00,,,0.00,Wunderground v.1.15,2013-02-27 12:30:00,
2013-02-27 06:35:00,27.4,26.2,29.66,North,349,6.0,11.0,95,0.00,,,0.00,Wunderground v.1.15,2013-02-27 12:35:00,
2013-02-27 06:40:00,27.4,26.2,29.66,North,5,7.0,8.0,95,0.00,,,0.00,Wunderground v.1.15,2013-02-27 12:40:00,
2013-02-27 06:45:00,27.4,26.2,29.66,North,5,6.0,13.0,95,0.00,,,0.00,Wunderground v.1.15,2013-02-27 12:45:00,
2013-02-27 06:50:00,27.5,26.3,29.67,NE,46,6.0,6.0,95,0.00,,,0.00,Wunderground v.1.15,2013-02-27 12:50:00,
2013-02-27 06:55:00,27.5,26.3,29.67,North,351,6.0,12.0,95,0.00,,,0.00,Wunderground v.1.15,2013-02-27 12:55:00,
2013-02-27 07:00:00,27.5,26.3,29.67,NE,37,6.0,6.0,95,0.00,,,0.00,Wunderground v.1.15,2013-02-27 13:00:00,
2013-02-27 07:05:00,27.5,26.3,29.67,NNE,15,6.0,6.0,95,0.00,,,0.00,Wunderground v.1.15,2013-02-27 13:05:00,
2013-02-27 07:10:00,27.6,26.4,29.67,NE,34,6.0,6.0,95,0.00,,,0.00,Wunderground v.1.15,2013-02-27 13:10:00,
2013-02-27 07:15:00,27.6,26.4,29.67,NNE,23,6.0,6.0,95,0.00,,,0.00,Wunderground v.1.15,2013-02-27 13:15:00,
2013-02-27 07:19:00,27.6,26.4,29.67,North,5,5.0,6.0,95,0.00,,,0.00,Wunderground v.1.15,2013-02-27 13:19:00,
2013-02-27 07:25:00,27.6,26.4,29.67,NE,46,5.0,6.0,95,0.00,,,0.00,Wunderground v.1.15,2013-02-27 13:25:00,
2013-02-27 07:30:00,27.7,26.5,29.67,NE,44,4.0,9.0,95,0.00,,,0.00,Wunderground v.1.15,2013-02-27 13:30:00,
2013-02-27 07:35:00,27.7,26.5,29.67,NE,37,4.0,18.0,95,0.00,,,0.00,Wunderground v.1.15,2013-02-27 13:35:00,
2013-02-27 07:40:00,27.8,26.6,29.67,NNW,348,4.0,18.0,95,0.00,,,0.00,Wunderground v.1.15,2013-02-27 13:40:00,
2013-02-27 07:45:00,27.9,26.7,29.68,NE,50,5.0,18.0,95,0.00,,,0.00,Wunderground v.1.15,2013-02-27 13:45:00,
2013-02-27 07:50:00,27.9,26.7,29.68,North,360,6.0,6.0,95,0.00,,,0.00,Wunderground v.1.15,2013-02-27 13:50:00,
2013-02-27 07:55:00,28.0,26.8,29.68,North,11,4.0,18.0,95,0.00,,,0.00,Wunderground v.1.15,2013-02-27 13:55:00,
2013-02-27 08:00:00,28.1,26.6,29.68,North,10,4.0,4.0,94,0.00,,,0.00,Wunderground v.1.15,2013-02-27 14:00:00,
2013-02-27 08:10:00,28.1,26.6,29.68,NNE,24,5.0,11.0,94,0.00,,,0.00,Wunderground v.1.15,2013-02-27 14:10:00,
2013-02-27 08:15:00,28.2,26.7,29.68,NNE,13,5.0,11.0,94,0.00,,,0.00,Wunderground v.1.15,2013-02-27 14:15:00,
2013-02-27 08:20:00,28.2,26.4,29.68,NNE,31,6.0,6.0,93,0.00,,,0.00,Wunderground v.1.15,2013-02-27 14:20:00,
2013-02-27 08:25:00,28.2,26.4,29.68,NNE,17,5.0,6.0,93,0.00,,,0.00,Wunderground v.1.15,2013-02-27 14:25:00,
2013-02-27 08:30:00,28.3,26.5,29.68,NE,40,5.0,5.0,93,0.00,,,0.00,Wunderground v.1.15,2013-02-27 14:30:00,
2013-02-27 08:35:00,28.3,26.5,29.68,NE,55,5.0,5.0,93,0.00,,,0.00,Wunderground v.1.15,2013-02-27 14:35:00,
2013-02-27 08:39:00,28.4,26.6,29.68,NNW,344,6.0,7.0,93,0.00,,,0.00,Wunderground v.1.15,2013-02-27 14:39:00,
2013-02-27 08:45:00,28.4,26.6,29.68,NNW,335,6.0,7.0,93,0.00,,,0.00,Wunderground v.1.15,2013-02-27 14:45:00,
2013-02-27 08:50:00,28.5,27.0,29.68,NNE,26,6.0,6.0,94,0.00,,,0.00,Wunderground v.1.15,2013-02-27 14:50:00,
2013-02-27 08:55:00,28.5,27.0,29.68,NE,38,6.0,6.0,94,0.00,,,0.00,Wunderground v.1.15,2013-02-27 14:55:00,
2013-02-27 09:00:00,28.5,27.0,29.67,NE,36,6.0,6.0,94,0.00,,,0.00,Wunderground v.1.15,2013-02-27 15:00:00,
2013-02-27 09:05:00,28.6,27.1,29.68,NE,42,5.0,6.0,94,0.00,,,0.00,Wunderground v.1.15,2013-02-27 15:05:00,
2013-02-27 09:09:00,28.7,27.4,29.68,North,11,5.0,5.0,95,0.00,,,0.00,Wunderground v.1.15,2013-02-27 15:09:00,
2013-02-27 09:15:00,28.8,27.5,29.68,North,355,5.0,9.0,95,0.00,,,0.00,Wunderground v.1.15,2013-02-27 15:15:00,
2013-02-27 09:20:00,28.8,27.5,29.68,NE,42,6.0,6.0,95,0.00,,,0.00,Wunderground v.1.15,2013-02-27 15:20:00,
2013-02-27 09:25:00,28.8,27.5,29.68,NE,42,6.0,6.0,95,0.00,,,0.00,Wunderground v.1.15,2013-02-27 15:25:00,
2013-02-27 09:30:00,29.0,27.7,29.68,NNE,30,5.0,5.0,95,0.00,,,0.00,Wunderground v.1.15,2013-02-27 15:30:00,
2013-02-27 09:35:00,29.2,27.9,29.68,North,5,4.0,5.0,95,0.00,,,0.00,Wunderground v.1.15,2013-02-27 15:35:00,
2013-02-27 09:40:00,29.4,28.1,29.68,North,355,4.0,4.0,95,0.00,,,0.00,Wunderground v.1.15,2013-02-27 15:40:00,
2013-02-27 09:45:00,29.6,28.3,29.68,NNW,343,5.0,8.0,95,0.00,,,0.00,Wunderground v.1.15,2013-02-27 15:45:00,
2013-02-27 09:50:00,29.6,28.3,29.68,NNE,30,5.0,8.0,95,0.00,,,0.00,Wunderground v.1.15,2013-02-27 15:50:00,
2013-02-27 09:55:00,29.7,28.4,29.67,NE,42,6.0,8.0,95,0.00,,,0.00,Wunderground v.1.15,2013-02-27 15:55:00,
2013-02-27 10:00:00,29.8,28.3,29.68,NNE,15,5.0,8.0,94,0.00,,,0.00,Wunderground v.1.15,2013-02-27 16:00:00,
2013-02-27 10:04:00,29.9,28.4,29.68,North,360,5.0,8.0,94,0.00,,,0.00,Wunderground v.1.15,2013-02-27 16:04:00,
2013-02-27 10:09:00,29.9,28.1,29.68,North,355,6.0,7.0,93,0.00,,,0.00,Wunderground v.1.15,2013-02-27 16:09:00,
2013-02-27 10:15:00,30.0,28.2,29.68,NNE,13,6.0,7.0,93,0.00,,,0.00,Wunderground v.1.15,2013-02-27 16:15:00,
2013-02-27 10:20:00,30.1,28.3,29.67,NE,51,5.0,5.0,93,0.00,,,0.00,Wunderground v.1.15,2013-02-27 16:20:00,
2013-02-27 10:30:00,30.1,28.3,29.67,NNE,18,4.0,6.0,93,0.00,,,0.00,Wunderground v.1.15,2013-02-27 16:30:00,
2013-02-27 10:35:00,30.1,28.1,29.67,NNW,338,5.0,11.0,92,0.00,,,0.00,Wunderground v.1.15,2013-02-27 16:35:00,
2013-02-27 10:40:00,30.1,28.1,29.67,NNE,30,5.0,5.0,92,0.00,,,0.00,Wunderground v.1.15,2013-02-27 16:40:00,
2013-02-27 10:45:00,30.0,28.0,29.67,NNE,23,5.0,5.0,92,0.00,,,0.00,Wunderground v.1.15,2013-02-27 16:45:00,
2013-02-27 10:49:00,30.0,28.0,29.67,NNE,22,5.0,6.0,92,0.00,,,0.00,Wunderground v.1.15,2013-02-27 16:49:00,
2013-02-27 10:54:00,30.1,28.1,29.67,NNE,19,4.0,6.0,92,0.00,,,0.00,Wunderground v.1.15,2013-02-27 16:54:00,
2013-02-27 11:00:00,30.1,28.1,29.68,NNE,17,4.0,12.0,92,0.00,,,0.00,Wunderground v.1.15,2013-02-27 17:00:00,
2013-02-27 11:10:00,30.1,28.1,29.68,NE,39,6.0,8.0,92,0.00,,,0.00,Wunderground v.1.15,2013-02-27 17:10:00,
2013-02-27 11:15:00,30.2,28.2,29.68,North,11,6.0,8.0,92,0.00,,,0.00,Wunderground v.1.15,2013-02-27 17:15:00,
2013-02-27 11:24:00,30.3,28.3,29.68,NNE,26,6.0,8.0,92,0.00,,,0.01,Wunderground v.1.15,2013-02-27 17:24:00,
2013-02-27 11:29:00,30.3,28.3,29.68,NNE,16,5.0,5.0,92,0.00,,,0.01,Wunderground v.1.15,2013-02-27 17:29:00,
2013-02-27 11:34:00,30.5,28.5,29.68,NE,40,5.0,7.0,92,0.00,,,0.01,Wunderground v.1.15,2013-02-27 17:34:00,
2013-02-27 11:39:00,30.5,28.5,29.68,North,5,5.0,14.0,92,0.00,,,0.01,Wunderground v.1.15,2013-02-27 17:39:00,
2013-02-27 11:44:00,30.5,28.7,29.68,NNE,13,5.0,14.0,93,0.00,,,0.01,Wunderground v.1.15,2013-02-27 17:44:00,
2013-02-27 11:50:00,30.5,28.7,29.68,North,355,5.0,14.0,93,0.00,,,0.01,Wunderground v.1.15,2013-02-27 17:50:00,
2013-02-27 11:55:00,30.5,28.7,29.68,North,355,6.0,14.0,93,0.00,,,0.01,Wunderground v.1.15,2013-02-27 17:55:00,
2013-02-27 12:00:00,30.6,28.8,29.68,NNE,21,5.0,6.0,93,0.00,,,0.01,Wunderground v.1.15,2013-02-27 18:00:00,
2013-02-27 12:05:00,30.7,28.9,29.68,NNE,30,5.0,6.0,93,0.00,,,0.01,Wunderground v.1.15,2013-02-27 18:05:00,
2013-02-27 12:10:00,30.8,29.0,29.68,NE,37,4.0,11.0,93,0.00,,,0.01,Wunderground v.1.15,2013-02-27 18:10:00,
2013-02-27 12:15:00,30.8,29.0,29.68,NNE,28,5.0,11.0,93,0.00,,,0.01,Wunderground v.1.15,2013-02-27 18:15:00,
2013-02-27 12:20:00,30.8,29.0,29.68,NNE,22,6.0,7.0,93,0.00,,,0.01,Wunderground v.1.15,2013-02-27 18:20:00,
2013-02-27 12:29:00,31.2,29.7,29.68,North,10,5.0,5.0,94,0.00,,,0.01,Wunderground v.1.15,2013-02-27 18:29:00,
2013-02-27 12:34:00,31.4,29.9,29.68,North,360,4.0,5.0,94,0.00,,,0.01,Wunderground v.1.15,2013-02-27 18:34:00,
2013-02-27 12:39:00,31.4,29.6,29.68,NNE,12,6.0,9.0,93,0.00,,,0.01,Wunderground v.1.15,2013-02-27 18:39:00,
2013-02-27 12:44:00,31.5,29.7,29.68,NNW,338,7.0,9.0,93,0.00,,,0.01,Wunderground v.1.15,2013-02-27 18:44:00,
2013-02-27 12:49:00,31.6,29.8,29.68,North,5,7.0,7.0,93,0.00,,,0.01,Wunderground v.1.15,2013-02-27 18:49:00,
2013-02-27 12:55:00,31.7,29.9,29.68,NNE,17,7.0,8.0,93,0.00,,,0.01,Wunderground v.1.15,2013-02-27 18:55:00,
2013-02-27 13:00:00,31.7,29.9,29.68,North,355,6.0,7.0,93,0.00,,,0.01,Wunderground v.1.15,2013-02-27 19:00:00,
2013-02-27 13:04:00,31.8,30.0,29.68,NNE,29,7.0,7.0,93,0.00,,,0.01,Wunderground v.1.15,2013-02-27 19:04:00,
2013-02-27 13:10:00,31.9,30.4,29.68,NW,325,6.0,7.0,94,0.00,,,0.02,Wunderground v.1.15,2013-02-27 19:10:00,
2013-02-27 13:14:00,31.9,30.1,29.68,North,360,7.0,10.0,93,0.00,,,0.02,Wunderground v.1.15,2013-02-27 19:14:00,
2013-02-27 13:19:00,31.8,30.0,29.68,NNE,16,8.0,8.0,93,0.00,,,0.02,Wunderground v.1.15,2013-02-27 19:19:00,
2013-02-27 13:25:00,31.7,29.9,29.68,North,355,7.0,8.0,93,0.00,,,0.02,Wunderground v.1.15,2013-02-27 19:25:00,
2013-02-27 13:30:00,31.7,29.9,29.68,North,11,6.0,6.0,93,0.00,,,0.03,Wunderground v.1.15,2013-02-27 19:30:00,
2013-02-27 13:35:00,31.8,30.3,29.68,NNE,15,6.0,6.0,94,0.00,,,0.03,Wunderground v.1.15,2013-02-27 19:35:00,
2013-02-27 13:40:00,31.8,30.3,29.68,NE,34,7.0,7.0,94,0.00,,,0.03,Wunderground v.1.15,2013-02-27 19:40:00,
2013-02-27 13:45:00,31.8,30.0,29.68,NE,46,7.0,7.0,93,0.04,,,0.04,Wunderground v.1.15,2013-02-27 19:45:00,
2013-02-27 13:50:00,31.7,29.9,29.68,North,5,6.0,6.0,93,0.04,,,0.04,Wunderground v.1.15,2013-02-27 19:50:00,
2013-02-27 13:55:00,31.6,29.8,29.68,NNE,22,8.0,8.0,93,0.04,,,0.04,Wunderground v.1.15,2013-02-27 19:55:00,
2013-02-27 14:00:00,31.6,30.1,29.68,North,10,8.0,8.0,94,0.04,,,0.05,Wunderground v.1.15,2013-02-27 20:00:00,
2013-02-27 14:10:00,31.5,30.0,29.69,North,350,7.0,12.0,94,0.04,,,0.05,Wunderground v.1.15,2013-02-27 20:10:00,
2013-02-27 14:15:00,31.5,30.0,29.68,North,355,6.0,12.0,94,0.00,,,0.05,Wunderground v.1.15,2013-02-27 20:15:00,